Starlink 32902

operational
NORAD ID: 62898 Int'l Des: 2025-024 Owner: SPXS Country: US Constellation: starlink
LEOCIRCULAR

About Starlink 32902

Description loading...

Live Position

Loading 3D Globe...

Upcoming Passes

Altitude History

Altitude vs Time

uPlot chart will show altitude changes over time

Two-Line Element Set

1 62898U 25024V 25352.56545283 .00024945 00000-0 91267-3 0 9993
2 62898 43.0019 63.1102 0001339 269.9135 90.1563 15.27590293 49860
Epoch: Dec 18, 2025 • Age: 20 hours

Current Status

Altitude 495.3 km
Velocity 7.62 km/s
Sub-Earth Point -43.12°S, 93.75°E
Launch Date Feb 4, 2025
Age 0.8 years
Type internet

Technical Details

Classification Payload
Mass 730.00 kg
Dry Mass 700.00 kg
Total Mass 730.00 kg
Length 0.30 m
Diameter 4.10 m
Span 29.00 m
Shape Box + pan
Manufacturer SPXS
Bus Type Starlink V2M
Phase Status In Orbit
Owner/State SPXS/US

Large Constellations

Loading constellations...